[[{"header":{"parameterUnit":"m.s-1","parameterCategory":1,"la1":30.2991,"la2":30.254,"lo1":-89.0895,"lo2":-89.0444,"dy":0.0017,"dx":0.0017,"nx":28,"ny":28,"refTime":"2023-08-01T21:00:00:Z","depth":0,"parameterNumber":2,"parameterNumberName":"U-component_of_WINDS"},"data":[0,0,0,0,0,0,0,0,0,0,0,0,0,0,0,0,0,0,0,0,0,0,0,0,0,0,0,0,0,0,0,0,0,0,0,0,0,0,0,0,0,0,0,0,0,0,0,0,0,0,0,0,0,0,0,0,0,0,1.663,1.6632,0,1.678,1.6782,1.6784,1.6812,1.6811,1.681,1.6809,1.6966,1.6971,1.6976,0,0,0,0,0,0,0,0,0,0,0,0,0,1.6371,1.6376,1.663,1.6632,1.6634,1.678,1.6782,1.6784,1.6812,1.6811,1.6809,1.6808,1.6964,1.697,1.6977,0,0,0,0,0,0,0,0,0,0,0,0,0,1.6499,1.6377,1.663,1.6666,1.667,1.6779,1.6782,1.6785,1.6813,1.6811,1.6809,1.6807,1.6962,1.697,1.6978,1.7063,0,0,1.7002,1.7006,0,0,0,0,0,0,0,0,1.6491,1.6508,1.6658,1.6663,1.6669,1.6775,1.6748,1.6878,1.6813,1.6759,1.6808,1.6806,1.6904,1.6917,1.6949,1.707,1.7077,1.7003,1.7008,1.7011,1.7013,0,0,0,0,0,0,0,1.6482,1.6502,1.669,1.6661,1.6667,1.6675,1.6691,1.6773,1.684,1.6763,1.6766,1.6783,1.6907,1.6941,1.6953,1.708,1.7003,1.701,1.7015,1.7018,1.7276,1.7278,0,0,0,0,0,0,1.6467,1.6494,1.6685,1.6694,1.6574,1.6681,1.6699,1.6743,1.6839,1.6852,1.6784,1.6784,1.6929,1.6944,1.6959,1.7063,1.7011,1.7018,1.7023,1.7274,1.7277,1.7279,0,0,0,0,0,0,1.6461,1.6484,1.6679,1.6595,1.662,1.6687,1.6737,1.6747,1.6781,1.6855,1.6867,1.6807,1.6928,1.6947,1.7036,1.7069,1.7022,1.7029,1.7272,1.7275,1.7278,1.7273,0,0,0,0,0,0,1.6454,1.6481,1.6514,1.6595,1.6625,1.6753,1.6739,1.6751,1.6795,1.6795,1.688,1.6892,1.6928,1.7024,1.7044,1.7079,1.7036,1.7269,1.7273,1.7277,1.7271,1.7276,1.728,0,0,0,0,0,1.6444,1.6508,1.6515,1.6538,1.6667,1.6755,1.6772,1.6811,1.6797,1.6831,1.6877,1.6889,1.7062,1.7033,1.7056,1.7094,1.7267,1.7272,1.7277,1.7269,1.7275,1.728,0,0,0,0,0,0,1.643,1.6519,1.6529,1.662,1.668,1.6759,1.6803,1.6816,1.6882,1.688,1.6927,1.6946,1.7031,1.7072,1.7037,1.718,1.7164,1.7174,1.715,1.7157,1.7161,1.7149,1.7042,0,0,0,0,0,1.6438,1.6501,1.6576,1.665,1.6679,1.6735,1.6775,1.68,1.6864,1.689,1.6943,1.7005,1.7074,1.7118,1.7185,1.7277,1.7295,1.7315,1.7319,1.7323,1.733,1.738,1.7389,1.7295,1.7295,1.7294,0,0,1.6454,1.651,1.6548,1.6648,1.6697,1.6761,1.6756,1.6826,1.6874,1.6901,1.6986,1.7028,1.7101,1.7191,1.7233,1.7227,1.736,1.7329,1.7331,1.7337,1.7386,1.7394,1.7402,1.7298,1.7297,1.7297,0,0,1.6516,1.6566,1.6632,1.668,1.6753,1.679,1.6806,1.6884,1.6912,1.6998,1.7019,1.7078,1.7195,1.7245,1.7286,1.7366,1.7378,1.7387,1.7411,1.7459,1.7466,1.7473,1.75,1.7509,1.7394,1.7394,1.7394,0,1.6527,1.6625,1.6664,1.6732,1.6775,1.68,1.6867,1.6913,1.7004,1.7034,1.7026,1.7171,1.7223,1.7324,1.7343,1.7376,1.7395,1.7377,1.7462,1.7469,1.7476,1.7502,1.7512,1.7394,1.7394,1.7394,1.7394,0,1.6634,1.6701,1.6746,1.6831,1.688,1.6947,1.6997,1.7041,1.7062,1.71,1.7187,1.7249,1.7328,1.7354,1.7376,1.7458,1.7452,1.7452,1.7437,1.7485,1.751,1.752,1.7395,1.7395,1.7395,1.7395,0,0,1.6691,1.6797,1.6812,1.6851,1.6933,1.6986,1.7054,1.713,1.7166,1.7229,1.7286,1.7384,1.7384,1.7431,1.7458,1.7501,1.7557,1.7496,1.7498,1.7503,1.765,1.7647,1.7658,1.7566,1.7568,1.757,1.7643,0,1.6762,1.6882,1.6919,1.702,1.7082,1.7106,1.7166,1.7222,1.726,1.7318,1.736,1.7428,1.7424,1.7452,1.7495,1.7541,1.7587,1.7537,1.762,1.7623,1.7599,1.7672,1.767,1.7736,1.7653,1.7655,1.7656,0,1.686,1.6922,1.7028,1.7101,1.7128,1.718,1.7252,1.7308,1.7373,1.7397,1.7447,1.7471,1.7543,1.7524,1.7623,1.7588,1.7625,1.7652,1.7656,1.7664,1.7641,1.768,1.7758,1.7767,1.7672,1.7671,1.767,0,1.6888,1.6999,1.7076,1.7109,1.7196,1.7232,1.727,1.7333,1.7376,1.7439,1.7466,1.7538,1.7576,1.7631,1.7673,1.7656,1.7768,1.7753,1.779,1.7788,1.7811,1.7809,1.7894,1.7838,1.7837,1.7837,1.7837,0,1.6962,1.7026,1.709,1.7137,1.7209,1.7252,1.7322,1.7362,1.7417,1.7473,1.75,1.7552,1.7605,1.7664,1.7698,1.7774,1.7792,1.7813,1.7821,1.781,1.7807,1.7833,1.7829,1.784,1.7839,1.7839,1.7838,0,1.7005,1.7051,1.7137,1.7212,1.7232,1.7282,1.7346,1.7393,1.7431,1.7501,1.752,1.758,1.7651,1.7698,1.779,1.7812,1.7894,1.7902,1.7871,1.7875,1.7908,1.7903,1.8012,1.8028,1.7962,1.7962,1.7963,0,1.7048,1.7098,1.7177,1.7216,1.7254,1.7316,1.7359,1.7403,1.7446,1.7523,1.7561,1.7633,1.7692,1.7804,1.7856,1.7926,1.7935,1.7968,1.7945,1.7932,1.7933,1.7929,1.7933,1.7971,1.7971,1.7972,1.7972,0,1.712,1.7139,1.72,1.7267,1.7317,1.7374,1.743,1.746,1.7514,1.7561,1.7633,1.7679,1.7771,1.7842,1.7916,1.7956,1.7973,1.7979,1.7991,1.7979,1.7958,1.7968,1.7879,1.7976,1.7976,1.7975,1.7975,1.7975,1.7163,1.7207,1.727,1.7336,1.7382,1.7433,1.7481,1.7524,1.7584,1.7661,1.7683,1.7757,1.7821,1.7921,1.7962,1.8021,1.8018,1.8036,1.804,1.8043,1.8042,1.795,1.8035,1.8035,1.8035,1.8035,1.8035,0,1.7234,1.7275,1.7335,1.7412,1.7463,1.7474,1.7536,1.7579,1.7643,1.77,1.7758,1.7839,1.7908,1.7965,1.8035,1.8071,1.8081,1.8088,1.8085,1.8094,1.8042,1.8023,1.8079,1.8079,1.8079,1.8079,1.8079,1.8079,1.7276,1.7351,1.7378,1.7476,1.7517,1.7588,1.7623,1.767,1.7716,1.7805,1.7861,1.7897,1.7954,1.8029,1.8092,1.8107,1.8131,1.8137,1.8153,1.8103,1.8098,1.8093,1.8076,1.8142,1.8142,1.8201,1.8201,1.8202]},{"header":{"parameterUnit":"m.s-1","parameterCategory":1,"la1":30.2991,"la2":30.254,"lo1":-89.0895,"lo2":-89.0444,"dy":0.0017,"dx":0.0017,"nx":28,"ny":28,"refTime":"2023-08-01T21:00:00:Z","depth":0,"parameterNumber":3,"parameterNumberName":"V-component_of_WINDS"},"data":[0,0,0,0,0,0,0,0,0,0,0,0,0,0,0,0,0,0,0,0,0,0,0,0,0,0,0,0,0,0,0,0,0,0,0,0,0,0,0,0,0,0,0,0,0,0,0,0,0,0,0,0,0,0,0,0,0,0,3.7476,3.7475,0,3.7458,3.7458,3.7457,3.745,3.7451,3.7451,3.7451,3.7431,3.743,3.7429,0,0,0,0,0,0,0,0,0,0,0,0,0,3.75,3.7499,3.7476,3.7475,3.7475,3.7458,3.7458,3.7457,3.745,3.7451,3.7451,3.7451,3.7431,3.743,3.7429,0,0,0,0,0,0,0,0,0,0,0,0,0,3.7486,3.7499,3.7476,3.747,3.7469,3.7458,3.7458,3.7457,3.745,3.7451,3.7451,3.7451,3.7431,3.743,3.7429,3.7422,0,0,3.7427,3.7426,0,0,0,0,0,0,0,0,3.7487,3.7485,3.7471,3.747,3.7469,3.7456,3.7459,3.7445,3.745,3.7457,3.7451,3.7451,3.7439,3.7437,3.7434,3.7421,3.742,3.7426,3.7426,3.7426,3.7425,0,0,0,0,0,0,0,3.7488,3.7486,3.7468,3.747,3.747,3.7467,3.7465,3.7456,3.7448,3.7457,3.7456,3.7454,3.7439,3.7435,3.7433,3.742,3.7426,3.7426,3.7425,3.7425,3.7397,3.7397,0,0,0,0,0,0,3.749,3.7487,3.7469,3.7468,3.7479,3.7466,3.7464,3.746,3.7448,3.7446,3.7454,3.7454,3.7436,3.7434,3.7433,3.7422,3.7426,3.7425,3.7424,3.7398,3.7397,3.7397,0,0,0,0,0,0,3.7491,3.7489,3.747,3.7477,3.7475,3.7466,3.7462,3.746,3.7456,3.7446,3.7444,3.7452,3.7436,3.7434,3.7424,3.7421,3.7424,3.7424,3.7398,3.7398,3.7397,3.7401,0,0,0,0,0,0,3.7492,3.7489,3.7487,3.7477,3.7474,3.7463,3.7461,3.746,3.7455,3.7455,3.7444,3.7442,3.7436,3.7426,3.7423,3.742,3.7423,3.7398,3.7398,3.7397,3.7401,3.7401,3.74,0,0,0,0,0,3.7492,3.7489,3.7487,3.7485,3.7472,3.7463,3.7461,3.7455,3.7455,3.7452,3.7445,3.7442,3.7422,3.7425,3.7422,3.7418,3.7398,3.7398,3.7397,3.7401,3.7401,3.74,0,0,0,0,0,0,3.7499,3.7488,3.7486,3.7479,3.7472,3.7462,3.7459,3.7455,3.7447,3.7447,3.7439,3.7437,3.7427,3.7422,3.7425,3.7409,3.741,3.7409,3.7413,3.7413,3.7412,3.7414,3.7422,0,0,0,0,0,3.75,3.7494,3.7484,3.748,3.7476,3.7468,3.7464,3.7459,3.7451,3.7448,3.7441,3.7432,3.7423,3.7418,3.7409,3.74,3.7396,3.7396,3.7395,3.7395,3.7394,3.7386,3.7385,3.7396,3.7396,3.7396,0,0,3.7502,3.7495,3.7492,3.7481,3.7475,3.7468,3.7465,3.7459,3.7453,3.7447,3.7437,3.7431,3.7421,3.741,3.7405,3.7405,3.739,3.7395,3.7395,3.7394,3.7385,3.7384,3.7383,3.7395,3.7395,3.7396,0,0,3.75,3.7496,3.749,3.7484,3.7474,3.7468,3.7467,3.7456,3.7452,3.7442,3.7437,3.7429,3.7415,3.7407,3.7401,3.7394,3.739,3.7391,3.7389,3.7381,3.738,3.738,3.7375,3.7374,3.739,3.739,3.739,0,3.7503,3.7494,3.7488,3.748,3.7475,3.7469,3.7462,3.7456,3.7444,3.7439,3.7439,3.742,3.7412,3.7399,3.7397,3.7393,3.7389,3.7392,3.7381,3.738,3.7379,3.7375,3.7373,3.739,3.739,3.739,3.739,0,3.7497,3.7489,3.7486,3.7474,3.7468,3.7461,3.7452,3.7447,3.7442,3.7436,3.7424,3.7415,3.7403,3.74,3.7396,3.7384,3.7384,3.7383,3.7383,3.7379,3.7374,3.7372,3.739,3.739,3.739,3.739,0,0,3.7501,3.7484,3.7483,3.7476,3.7464,3.7458,3.7449,3.7438,3.7432,3.7424,3.7415,3.7402,3.74,3.7393,3.7387,3.7381,3.7372,3.738,3.7379,3.7377,3.7356,3.7357,3.7355,3.737,3.7369,3.7369,3.7357,0,3.7497,3.7483,3.7476,3.7464,3.7456,3.7448,3.7441,3.7431,3.7424,3.7415,3.7407,3.7397,3.7396,3.7391,3.7384,3.7375,3.7368,3.7376,3.7359,3.7359,3.7361,3.7353,3.7354,3.7343,3.7355,3.7355,3.7355,0,3.7491,3.7482,3.7469,3.7456,3.7452,3.7446,3.7433,3.7425,3.7413,3.7408,3.7399,3.7394,3.7382,3.7383,3.7366,3.7371,3.7364,3.7358,3.7357,3.7354,3.7356,3.7349,3.734,3.7337,3.7352,3.7352,3.7353,0,3.7493,3.7478,3.7468,3.7463,3.7447,3.7442,3.7435,3.7423,3.7416,3.7405,3.7399,3.7387,3.7379,3.7369,3.7359,3.7361,3.7341,3.7342,3.7335,3.7335,3.7331,3.7331,3.7319,3.7328,3.7328,3.7328,3.7328,0,3.749,3.7482,3.7468,3.7462,3.7451,3.7442,3.7432,3.7424,3.7413,3.7404,3.7397,3.7387,3.7375,3.7364,3.7356,3.7341,3.7338,3.7332,3.733,3.7332,3.7333,3.7327,3.7327,3.7328,3.7328,3.7328,3.7328,0,3.7491,3.7482,3.7469,3.7455,3.7451,3.7444,3.7431,3.7423,3.7415,3.7402,3.7399,3.7385,3.7371,3.736,3.7342,3.7336,3.732,3.7318,3.7324,3.7323,3.7315,3.7315,3.7298,3.7294,3.7307,3.7307,3.7307,0,3.7489,3.7482,3.7466,3.746,3.7453,3.7442,3.7434,3.7424,3.7416,3.74,3.7394,3.7379,3.7367,3.7344,3.7331,3.7316,3.7313,3.7308,3.7311,3.7312,3.7311,3.7311,3.7309,3.7307,3.7307,3.7307,3.7307,0,3.7485,3.748,3.747,3.7457,3.7448,3.7437,3.7426,3.742,3.7408,3.7398,3.7384,3.7374,3.7354,3.7339,3.7322,3.7313,3.7307,3.7306,3.7303,3.7305,3.7308,3.7304,3.7321,3.7307,3.7307,3.7307,3.7307,3.7307,3.7483,3.7476,3.7463,3.7451,3.7441,3.7431,3.7422,3.7412,3.74,3.7384,3.7378,3.7362,3.7347,3.7324,3.7314,3.73,3.73,3.7296,3.7295,3.7294,3.7293,3.7311,3.7297,3.7297,3.7297,3.7297,3.7297,0,3.7478,3.7469,3.7458,3.7442,3.7432,3.7427,3.7414,3.7405,3.7392,3.7379,3.7366,3.7348,3.7332,3.7317,3.73,3.7291,3.7288,3.7287,3.7287,3.7284,3.7296,3.7299,3.729,3.729,3.729,3.729,3.729,3.729,3.7474,3.7461,3.7454,3.7435,3.7425,3.7411,3.7403,3.7392,3.7381,3.7361,3.7348,3.7338,3.7324,3.7305,3.7289,3.7285,3.7278,3.7278,3.7272,3.7283,3.7284,3.7285,3.7288,3.7277,3.7277,3.7262,3.7262,3.7262]}]]